• In Hungary
  • List of Countries
  • For 7 days
  • Water Temperature
  • Satellite Maps
  • Weather Map
  • News
  • Weather Widgets
  • user-avatar
    Login

    Hourly Weather Novaya Krasavka

    Today, 23 October, Tuesday

    Time Temperature Precipitation Wind Pressure Humidity
    00:00 +10°C° 0 mm 4 mps 751 mmHg 58%
    01:00 +10°C° 0 mm 4 mps 751 mmHg 60%
    02:00 +10°C° 0 mm 4 mps 750 mmHg 61%
    03:00 +10°C° 0 mm 4 mps 749 mmHg 66%
    04:00 +8°C° 0 mm 4 mps 749 mmHg 67%
    05:00 +8°C° 0 mm 5 mps 748 mmHg 67%
    06:00 +8°C° 0 mm 5 mps 748 mmHg 68%
    07:00 +8°C° 0.2 mm 5 mps 747 mmHg 70%
    08:00 +8°C° 0.2 mm 6 mps 747 mmHg 71%
    09:00 +9°C° 0.2 mm 6 mps 746 mmHg 72%
    10:00 +9°C° 0.3 mm 6 mps 746 mmHg 74%
    11:00 +9°C° 0.3 mm 6 mps 745 mmHg 75%
    12:00 +9°C° 0.3 mm 6 mps 744 mmHg 77%
    13:00 +9°C° 0.3 mm 6 mps 744 mmHg 79%
    14:00 +9°C° 0.3 mm 5 mps 743 mmHg 80%
    15:00 +10°C° 0.3 mm 5 mps 743 mmHg 82%
    16:00 +9°C° 0.1 mm 5 mps 742 mmHg 85%
    17:00 +10°C° 0.1 mm 4 mps 742 mmHg 87%
    18:00 +10°C° 0.1 mm 4 mps 742 mmHg 89%
    19:00 +10°C° 0 mm 3 mps 742 mmHg 90%
    20:00 +9°C° 0 mm 3 mps 741 mmHg 91%
    21:00 +9°C° 0 mm 3 mps 741 mmHg 92%
    22:00 +8°C° 0 mm 3 mps 741 mmHg 92%
    23:00 +8°C° 0 mm 3 mps 741 mmHg 92%

    Tomorrow, 24 October, Wednesday

    Time Temperature Precipitation Wind Pressure Humidity
    00:00 +7°C° 0 mm 3 mps 741 mmHg 92%
    01:00 +7°C° 0 mm 3 mps 740 mmHg 91%
    02:00 +5°C° 0 mm 3 mps 740 mmHg 90%
    03:00 +5°C° 0 mm 3 mps 740 mmHg 89%
    04:00 +5°C° 0 mm 3 mps 739 mmHg 88%
    05:00 +5°C° 0 mm 4 mps 739 mmHg 87%
    06:00 +4°C° 0 mm 4 mps 739 mmHg 86%
    07:00 +6°C° 0 mm 5 mps 738 mmHg 79%
    08:00 +7°C° 0 mm 6 mps 738 mmHg 72%
    09:00 +8°C° 0 mm 7 mps 738 mmHg 65%
    10:00 +9°C° 0 mm 7 mps 737 mmHg 61%
    11:00 +10°C° 0 mm 7 mps 737 mmHg 57%
    12:00 +11°C° 0 mm 8 mps 737 mmHg 53%
    13:00 +12°C° 0 mm 8 mps 736 mmHg 54%
    14:00 +12°C° 0 mm 8 mps 735 mmHg 54%
    15:00 +12°C° 0 mm 8 mps 735 mmHg 54%
    16:00 +12°C° 0 mm 7 mps 734 mmHg 60%
    17:00 +11°C° 0 mm 7 mps 734 mmHg 65%
    18:00 +11°C° 0 mm 6 mps 733 mmHg 70%
    19:00 +11°C° 0.5 mm 6 mps 733 mmHg 73%
    20:00 +11°C° 0.5 mm 6 mps 733 mmHg 77%
    21:00 +11°C° 0.5 mm 7 mps 733 mmHg 80%
    22:00 +11°C° 0.2 mm 6 mps 732 mmHg 81%
    23:00 +11°C° 0.2 mm 6 mps 732 mmHg 82%

    Day after tomorrow, 25 October, Thursday

    Time Temperature Precipitation Wind Pressure Humidity
    00:00 +12°C° 0.2 mm 5 mps 732 mmHg 84%
    01:00 +11°C° 0.4 mm 6 mps 732 mmHg 85%
    02:00 +11°C° 0.4 mm 6 mps 731 mmHg 87%
    03:00 +11°C° 0.4 mm 7 mps 731 mmHg 89%
    04:00 +11°C° 1.4 mm 7 mps 730 mmHg 88%
    05:00 +11°C° 1.4 mm 7 mps 730 mmHg 88%
    06:00 +11°C° 1.4 mm 8 mps 729 mmHg 88%
    07:00 +11°C° 0.2 mm 7 mps 729 mmHg 86%
    08:00 +11°C° 0.2 mm 7 mps 729 mmHg 84%
    09:00 +12°C° 0.2 mm 7 mps 729 mmHg 83%
    10:00 +12°C° 0.1 mm 7 mps 729 mmHg 80%
    11:00 +12°C° 0.1 mm 7 mps 729 mmHg 78%
    12:00 +12°C° 0.1 mm 7 mps 729 mmHg 76%
    13:00 +11°C° 0.3 mm 6 mps 730 mmHg 77%
    14:00 +10°C° 0.3 mm 6 mps 730 mmHg 78%
    15:00 +9°C° 0.3 mm 5 mps 730 mmHg 79%
    16:00 +8°C° 0.2 mm 5 mps 731 mmHg 78%
    17:00 +7°C° 0.2 mm 4 mps 731 mmHg 76%
    18:00 +8°C° 0.2 mm 3 mps 731 mmHg 75%
    19:00 +6°C° 0 mm 4 mps 732 mmHg 76%
    20:00 +6°C° 0 mm 4 mps 732 mmHg 78%
    21:00 +6°C° 0 mm 4 mps 732 mmHg 80%
    22:00 +6°C° 0 mm 4 mps 732 mmHg 81%
    23:00 +5°C° 0 mm 4 mps 733 mmHg 81%

    26 October, Friday

    Time Temperature Precipitation Wind Pressure Humidity
    00:00 +5°C° 0 mm 4 mps 733 mmHg 82%
    01:00 +5°C° 0 mm 3 mps 733 mmHg 82%
    02:00 +5°C° 0 mm 3 mps 734 mmHg 82%
    03:00 +4°C° 0 mm 3 mps 734 mmHg 82%
    04:00 +4°C° 0 mm 3 mps 734 mmHg 83%
    05:00 +4°C° 0 mm 4 mps 734 mmHg 83%
    06:00 +3°C° 0 mm 4 mps 735 mmHg 84%
    07:00 +4°C° 0 mm 4 mps 735 mmHg 82%
    08:00 +3°C° 0 mm 5 mps 736 mmHg 80%
    09:00 +4°C° 0 mm 6 mps 736 mmHg 78%
    10:00 +4°C° 0.1 mm 6 mps 737 mmHg 72%
    11:00 +5°C° 0.1 mm 6 mps 737 mmHg 66%
    12:00 +5°C° 0.1 mm 6 mps 737 mmHg 60%
    13:00 +5°C° 0.1 mm 6 mps 738 mmHg 59%
    14:00 +5°C° 0.1 mm 6 mps 738 mmHg 58%
    15:00 +5°C° 0.1 mm 6 mps 738 mmHg 57%
    16:00 +5°C° 0 mm 5 mps 739 mmHg 61%
    17:00 +3°C° 0 mm 5 mps 739 mmHg 64%
    18:00 +4°C° 0 mm 4 mps 740 mmHg 67%
    19:00 +3°C° 0 mm 4 mps 740 mmHg 70%
    20:00 +3°C° 0 mm 3 mps 741 mmHg 72%
    21:00 +2°C° 0 mm 3 mps 741 mmHg 74%
    22:00 +2°C° 0 mm 3 mps 741 mmHg 74%
    23:00 +1°C° 0 mm 3 mps 742 mmHg 74%

    27 October, Saturday

    Time Temperature Precipitation Wind Pressure Humidity
    00:00 +1°C° 0 mm 3 mps 742 mmHg 74%
    01:00 +1°C° 0 mm 3 mps 742 mmHg 74%
    02:00 +1°C° 0 mm 3 mps 743 mmHg 75%
    03:00 0°C° 0 mm 4 mps 743 mmHg 75%
    04:00 0°C° 0 mm 4 mps 743 mmHg 77%
    05:00 0°C° 0 mm 4 mps 744 mmHg 78%
    06:00 0°C° 0 mm 4 mps 744 mmHg 80%
    07:00 0°C° 0 mm 5 mps 744 mmHg 78%
    08:00 +1°C° 0 mm 5 mps 745 mmHg 76%
    09:00 +2°C° 0 mm 6 mps 745 mmHg 74%
    10:00 +3°C° 0 mm 6 mps 746 mmHg 72%
    11:00 +4°C° 0 mm 6 mps 746 mmHg 70%
    12:00 +4°C° 0 mm 6 mps 747 mmHg 68%
    13:00 +4°C° 0 mm 6 mps 747 mmHg 65%
    14:00 +5°C° 0 mm 6 mps 747 mmHg 63%
    15:00 +6°C° 0 mm 5 mps 748 mmHg 60%
    16:00 +5°C° 0 mm 5 mps 748 mmHg 65%
    17:00 +4°C° 0 mm 4 mps 748 mmHg 71%
    18:00 +3°C° 0 mm 3 mps 748 mmHg 76%
    19:00 +3°C° 0 mm 4 mps 748 mmHg 77%
    20:00 +3°C° 0 mm 4 mps 748 mmHg 78%
    21:00 +3°C° 0 mm 4 mps 748 mmHg 79%
    22:00 +2°C° 0 mm 5 mps 748 mmHg 77%
    23:00 +3°C° 0 mm 6 mps 748 mmHg 75%

    28 October, Sunday

    Time Temperature Precipitation Wind Pressure Humidity
    00:00 +3°C° 0 mm 6 mps 748 mmHg 73%
    01:00 +4°C° 0 mm 7 mps 747 mmHg 74%
    02:00 +4°C° 0 mm 7 mps 747 mmHg 75%
    03:00 +4°C° 0 mm 7 mps 746 mmHg 76%
    04:00 +5°C° 0 mm 8 mps 746 mmHg 80%
    05:00 +6°C° 0 mm 8 mps 746 mmHg 84%
    06:00 +6°C° 0 mm 8 mps 745 mmHg 87%
    07:00 +7°C° 0.3 mm 8 mps 745 mmHg 88%
    08:00 +8°C° 0.3 mm 9 mps 745 mmHg 88%
    09:00 +10°C° 0.3 mm 9 mps 745 mmHg 89%
    10:00 +10°C° 0.6 mm 9 mps 745 mmHg 88%
    11:00 +10°C° 0.6 mm 9 mps 746 mmHg 87%
    12:00 +10°C° 0.6 mm 8 mps 746 mmHg 86%
    13:00 +11°C° 0.1 mm 8 mps 746 mmHg 85%
    14:00 +11°C° 0.1 mm 8 mps 746 mmHg 84%
    15:00 +11°C° 0.1 mm 7 mps 747 mmHg 82%
    16:00 +11°C° 0.2 mm 6 mps 747 mmHg 85%
    17:00 +10°C° 0.2 mm 5 mps 748 mmHg 87%
    18:00 +10°C° 0.2 mm 5 mps 748 mmHg 89%
    19:00 +11°C° 0.2 mm 4 mps 749 mmHg 90%
    20:00 +11°C° 0.2 mm 3 mps 749 mmHg 91%
    21:00 +10°C° 0.2 mm 2 mps 750 mmHg 93%
    22:00 +10°C° 0.2 mm 2 mps 750 mmHg 92%
    23:00 +11°C° 0.2 mm 1 mps 750 mmHg 91%

    29 October, Monday

    Time Temperature Precipitation Wind Pressure Humidity
    00:00 +10°C° 0.2 mm 1 mps 751 mmHg 89%
    01:00 +10°C° 0 mm 1 mps 751 mmHg 89%
    02:00 +10°C° 0 mm 1 mps 751 mmHg 89%
    03:00 +9°C° 0 mm 2 mps 751 mmHg 89%
    04:00 +9°C° 0.1 mm 2 mps 751 mmHg 89%
    05:00 +9°C° 0.1 mm 2 mps 752 mmHg 90%
    06:00 +9°C° 0.1 mm 2 mps 752 mmHg 90%
    07:00 +9°C° 0 mm 2 mps 752 mmHg 90%
    08:00 +9°C° 0 mm 3 mps 752 mmHg 89%
    09:00 +10°C° 0 mm 3 mps 753 mmHg 88%
    10:00 +11°C° 0 mm 3 mps 753 mmHg 85%
    11:00 +12°C° 0 mm 3 mps 753 mmHg 81%
    12:00 +13°C° 0 mm 3 mps 753 mmHg 78%
    13:00 +14°C° 0 mm 3 mps 753 mmHg 75%
    14:00 +16°C° 0 mm 3 mps 753 mmHg 73%
    15:00 +16°C° 0 mm 3 mps 753 mmHg 70%
    16:00 +14°C° 0 mm 3 mps 753 mmHg 73%
    17:00 +13°C° 0 mm 3 mps 753 mmHg 76%
    18:00 +12°C° 0 mm 3 mps 753 mmHg 79%
    19:00 +12°C° 0 mm 3 mps 753 mmHg 78%
    20:00 +11°C° 0 mm 3 mps 753 mmHg 76%
    21:00 +11°C° 0 mm 3 mps 753 mmHg 75%
    22:00 +11°C° 0 mm 3 mps 754 mmHg 74%
    23:00 +10°C° 0 mm 3 mps 754 mmHg 72%
    Show more